Flag for Switzerland Weather past 2 weeks in Bellinzona, Ticino, Switzerland

Now
71 °F

Mild.


Feels Like: 76 °F
Forecast: 53 / 81 °F
Wind: 17 mph from East

Location: Locarno-Magadino

Current Time: Sep 2, 2014 at 9:43:47 PM

Latest Report: Sep 2, 2014 at 8:00 PM


Visibility: N/A

Pressure: 29.89 "Hg

Humidity: 30%

Dew point: 38 °F

Location of BellinzonaLocation

Historic Weather in Bellinzona — Graph

°F

Bellinzona temperature yesterday

Maximum temperature yesterday: 78 °F (at 3:00 PM)
Minimum temperature yesterday: 56 °F (at 7:00 AM)
Average temperature yesterday: 68 °F

Past Weeks' High & Low Weather Summary

 TemperatureHumidityPressure
High85 °F (Aug 27, 4:00 PM)100% (Aug 27, 2:00 AM)30.12 "Hg (Aug 27, 2:00 AM)
Low51 °F (Aug 21, 7:00 AM)21% (Aug 27, 6:00 PM)29.78 "Hg (Aug 27, 3:00 PM)
Average67 °F73%29.93 "Hg
* Reported Aug 18 8:00 PM — Sep 2 8:00 PM, Bellinzona, Weather by CustomWeather, © 2014

Note: Actual official high and low records may vary slightly from our data, if they occured in-between our weather recording intervals... More about our weather records

Advertising

Bellinzona weather history for previous 24 hours

 ConditionsComfort  
Time TempWeatherWind HumidityBarometerVisibility
8:00 PM
Sep 2
71 °FMild.17 mph30%29.89 "HgN/A
7:00 PM73 °FMild.16 mph29%29.86 "HgN/A
6:00 PM76 °FMild.16 mph25%29.84 "HgN/A
5:00 PM77 °FPleasantly warm.18 mph26%29.83 "HgN/A
4:00 PM78 °FPleasantly warm.20 mph23%29.83 "HgN/A
3:00 PM79 °FPleasantly warm.18 mph25%29.83 "HgN/A
2:00 PM78 °FPleasantly warm.18 mph23%29.84 "HgN/A
1:00 PM77 °FPleasantly warm.20 mph23%29.83 "HgN/A
12:00 PM75 °FMild.17 mph25%29.85 "HgN/A
11:00 AM73 °FMild.17 mph30%29.87 "HgN/A
10:00 AM70 °FMild.15 mph31%29.89 "HgN/A
9:00 AM66 °FMild.13 mph34%29.91 "HgN/A
8:00 AM64 °FMild.12 mph37%29.91 "HgN/A
7:00 AM62 °FMild.12 mph38%29.90 "HgN/A
6:00 AM62 °FRefreshingly cool.6 mph40%29.91 "HgN/A
5:00 AM63 °FMild.9 mph38%29.90 "HgN/A
4:00 AM63 °FMild.10 mph38%29.90 "HgN/A
3:00 AM63 °FMild.10 mph39%29.92 "HgN/A
1:40 AM64 °FMild.5 mph36%29.93 "HgN/A
1:00 AM64 °FMild.13 mph38%29.93 "HgN/A
12:00 AM65 °FMild.10 mph36%29.94 "HgN/A
11:00 PM
Sep 1
66 °FMild.13 mph35%29.94 "HgN/A
10:00 PM68 °FMild.14 mph30%29.93 "HgN/A
9:00 PM68 °FMild.10 mph31%29.92 "HgN/A
Weather by CustomWeather, © 2014

See weather overviewHow to use our weather pages